User: anonymous   Login
Location: Unspecified
(0.0000°N, 0.0000°E)
Time: 07:41:52
(UTC+00:00)
Language:

COSMOS 2438 - Orbit

View from above orbital plane
View from above orbital plane
View from above satellite
View from above satellite

Ground track
Ground track

The orbit data is extracted from the following two-line orbital elements,

1 32955U 08025C   18115.75558887 +.00000034 +00000-0 +17606-3 0  9998
2 32955 082.5054 043.7911 0020559 321.4246 038.5364 12.43303182450362
Epoch (UTC): 25 April 2018 18:08:02
Eccentricity: 0.0020559
inclination: 82.5054°
perigee height: 1476 km
apogee height: 1509 km
right ascension of ascending node: 43.7911°
argument of perigee: 321.4246°
revolutions per day: 12.43303182
mean anomaly at epoch: 38.5364°
orbit number at epoch: 45036

The dashed part of the orbit path shows where the satellite is in the earth's shadow,  

DLR